Location: Unspecified
(0.0000°N, 0.0000°E)
Time: 18:34:19
(UTC+00:00)

deb Explorer IX - All Passes

Search period start: 01 September 2014 00:00
Search period end: 11 September 2014 00:00
Orbit: 559 x 1218 km, 38.8° (Epoch: 31 August)

Date Brightness Start Highest point End Pass type
(mag) Time Alt. Az. Time Alt. Az. Time Alt. Az.
01 Sep - 08:32:58 10° NNW 08:36:38 28° NE 08:40:14 10° E daylight
01 Sep - 10:21:27 10° W 10:24:44 23° SW 10:28:10 10° SSE daylight
01 Sep - 19:34:25 10° SSW 19:40:37 27° SE 19:47:02 10° E visible
01 Sep - 21:21:51 10° SW 21:29:43 74° NW 21:37:30 10° NE visible
01 Sep - 23:14:15 10° WNW 23:18:55 17° NW 23:23:26 10° N night (unlit)
02 Sep - 08:30:18 10° NNW 08:34:23 46° NE 08:38:22 10° ESE daylight
02 Sep - 10:20:13 10° WSW 10:22:32 15° SW 10:24:55 10° S daylight
02 Sep - 19:31:31 10° SSW 19:38:16 35° SE 19:45:20 10° ENE visible
02 Sep - 21:19:40 10° WSW 21:27:19 56° NW 21:34:57 10° NE visible
02 Sep - 23:13:53 10° WNW 23:16:42 12° NW 23:19:29 10° NNW night (unlit)
03 Sep - 08:27:50 10° NW 08:32:07 78° NE 08:36:15 10° SE daylight
03 Sep - 19:28:46 10° SSW 19:35:52 47° SE 19:43:24 10° ENE visible
03 Sep - 21:17:38 10° WSW 21:24:56 43° NW 21:32:15 10° NNE visible
04 Sep - 06:39:35 10° N 06:41:29 12° NE 06:43:18 10° ENE daylight
04 Sep - 08:25:33 10° WNW 08:29:50 63° SW 08:33:56 10° SE daylight
04 Sep - 17:41:35 10° SSE 17:44:23 12° SE 17:47:18 10° ESE daylight
04 Sep - 19:26:09 10° SW 19:33:27 62° SE 19:41:16 10° ENE visible
04 Sep - 21:15:48 10° W 21:22:34 32° NW 21:29:24 10° NNE visible
05 Sep - 06:35:57 10° N 06:39:19 19° NE 06:42:26 10° E daylight
05 Sep - 08:23:29 10° WNW 08:27:32 38° SW 08:31:24 10° SSE daylight
05 Sep - 17:37:46 10° S 17:42:06 17° SE 17:46:44 10° E daylight
05 Sep - 19:23:40 10° SW 19:31:01 81° SE 19:38:58 10° NE visible
05 Sep - 21:14:12 10° W 21:20:14 24° NW 21:26:22 10° NNE visible
06 Sep - 06:32:54 10° NNW 06:37:06 29° NE 06:40:53 10° E daylight
06 Sep - 08:21:40 10° W 08:25:14 24° SW 08:28:38 10° SSE daylight
06 Sep - 17:34:31 10° S 17:39:45 23° SE 17:45:27 10° E daylight
06 Sep - 19:21:19 10° SW 19:28:35 78° NW 19:36:31 10° NE visible
06 Sep - 21:12:57 10° WNW 21:17:58 18° NW 21:23:04 10° N visible
07 Sep - 06:30:07 10° NNW 06:34:51 46° NE 06:39:01 10° ESE daylight
07 Sep - 08:20:14 10° W 08:22:55 16° SW 08:25:30 10° S daylight
07 Sep - 17:31:32 10° SSW 17:37:20 31° SE 17:43:48 10° E daylight
07 Sep - 19:19:06 10° WSW 19:26:10 59° NW 19:33:55 10° NE visible
07 Sep - 21:12:17 10° WNW 21:15:45 13° NW 21:19:16 10° N visible
08 Sep - 06:27:33 10° NW 06:32:33 75° NE 06:36:54 10° SE daylight
08 Sep - 08:20:27 10° SW 08:20:37 10° SW 08:20:46 10° SW daylight
08 Sep - 17:28:44 10° SSW 17:34:53 41° SE 17:41:53 10° ENE daylight
08 Sep - 19:17:03 10° WSW 19:23:46 44° NW 19:31:10 10° NNE visible
09 Sep - 04:38:26 10° N 04:41:33 15° NE 04:44:25 10° ENE visible
09 Sep - 06:25:09 10° NW 06:30:13 70° SW 06:34:35 10° SE daylight
09 Sep - 17:26:05 10° SW 17:32:25 56° SE 17:39:45 10° ENE daylight
09 Sep - 19:15:11 10° W 19:21:25 33° NW 19:28:15 10° NNE visible
10 Sep - 04:34:59 10° NNW 04:39:22 22° NE 04:43:14 10° E visible
10 Sep - 06:22:56 10° WNW 06:27:50 44° SW 06:32:05 10° SSE daylight
10 Sep - 15:38:48 10° SSE 15:41:26 13° SE 15:44:13 10° ESE daylight
10 Sep - 17:23:34 10° SW 17:29:57 75° SE 17:37:26 10° NE daylight
10 Sep - 19:13:33 10° W 19:19:07 24° NW 19:25:08 10° NNE visible
